カタログに戻る

STARLINK-6296

運用中通信VLEO
NORAD 56773·PAYLOAD·🇺🇸 United States

打ち上げ May 31, 2023 から Vandenberg Space Force Base

Loading…

次のパス (今後24時間)

TLE

最新Source: CelesTrak SupGP

元期: Sep 15, 2026, 02:11 UTC

1 56773C 23078G   26258.09145833  .00005353  00000+0  44869-3 0  2581
2 56773  70.0021 187.0729 0003032 271.2836  56.1152 14.98323309    14

AllMySatでSTARLINK-6296をリアルタイム追跡

Download on the App Store